sat.trackr.live / text

‹ back to catalog

DEIMOS-2

NORAD 40013 · 2014-033D

PAYLOAD ACTIVE UNKNOWN

§ Identity

Operator
Country
SPN
Launch date
2014-06-19
Launch site
DLS
Launch vehicle
Mass (kg)
RCS (m²)
1.80

Purposes: earth_obs

External: N2YO · Heavens-Above · Gunter

§ Orbital elements

Epoch: 2026-09-13T03:11:05.661888Z

Period
96.39 min
Inclination
97.5682°
Eccentricity
0.0002272
Mean motion
14.93921281 rev/d
Perigee alt
584.1 km
Apogee alt
587.3 km
Semi-major
6,963.9 km
B*
1.4423e-4
RAAN
127.4790°
Arg perigee
67.4903°
Mean anomaly
292.6557°
Rev number
65,085

§ Raw data

DEIMOS-21 40013U 14033D   26256.13270442  .00001480  00000+0  14423-3 0  99922 40013  97.5682 127.4790 0002272  67.4903 292.6557 14.93921281650859

JSON: /api/v1/satellites/40013 · /tle

For live sub-satellite position, see the globe view (requires WebGL).

§ Visibility from observer

Set your observer location to see the next 7 days of passes ≥ 10°. The values pass through the URL so the page stays shareable.

No JS? Fill the form by hand. The geolocation button needs JavaScript.

§ Radio — SatNOGS DB

ModeDescriptionDownlinkUplink
BPSK S-band telemetry 2.224 GHz

1 transmitter · refreshed weekly from db.satnogs.org